Details From TTPP - Trinidad/Piarco Intl
To TTCP - Tobago/Crown Point Intl
Flight Number -
Tags decoded
Created
Modified
Stats Distance 70 nm / 129 km
Max Altitude 0 ft / 0 m
Waypoints 9
Social Downloads 1
Likes 0
Share VATSIM

Download

Looking for another format? Having issues loading an existing format? Contact us
Advertisement - Login to hide

Notes

Requested: TTPP R1535 TALUS LEXOR SHARK OMEGO DATSU SASIM NOTEL TTCP

Route

TTPP R1535 TALUS LEXOR OMEGO DATSU SASIM NOTEL TTCP

ID Type Via Altitude Latitude Longitude Leg Dist Tot Dist Heading (true) Name
O TTPP APT - 0 ft / 0 m 10.59537˚ -61.33724˚ - 0 nm - Trinidad/Piarco Intl
R1535 FIX - 0 ft / 0 m 10.59533˚ -61.35186˚ 0 nm 0 nm 270° / 270° -
TALUS FIX - 0 ft / 0 m 10.59500˚ -61.43833˚ 5 nm 5 nm 270° / 270° -
LEXOR FIX - 0 ft / 0 m 10.59500˚ -61.51833˚ 4 nm 10 nm 270° / 270° -
OMEGO FIX - 0 ft / 0 m 10.67833˚ -61.51833˚ 5 nm 15 nm 0° / 360° -
DATSU FIX - 0 ft / 0 m 11.08000˚ -61.01833˚ 38 nm 53 nm 51° / 51° -
SASIM FIX - 0 ft / 0 m 11.16333˚ -61.01333˚ 5 nm 58 nm 3° / 3° -
NOTEL FIX - 0 ft / 0 m 11.15667˚ -60.92833˚ 5 nm 63 nm 95° / 95° -
O TTCP APT - 0 ft / 0 m 11.14966˚ -60.83220˚ 5 nm 69 nm 94° / 94° Tobago/Crown Point Intl

Altitude Profile

Advertisement - Login to hide

TTPP

Details ICAO TTPP (POS)
Name Trinidad/Piarco Intl
Region Trinidad and Tobago
Timezone America/Port_of_Spain (UTC-4.0)
Stats Elevation 57 ft / 17 m (AMSL)
Location 10.595370° -61.337239°
Runways 1
Magnetic Variation 15.001° W

METAR

TTPP 161700Z 10012KT 9999 VCSH SCT018 31/21 Q1013 NOSIG RMK VCSH NE SE S SW

Decode

TAF

Not found

Departure Runways

ID Width Length Bearing (true) Bearing (mag) Surface Threshold Offset Overrun Length
10 151 ft / 46 m 10,486 ft / 3,196 m 89.83° 104.83° Asphalt 0 ft / 0 m 79 ft / 24 m
28 151 ft / 46 m 10,486 ft / 3,196 m 269.84° 284.84° Asphalt 0 ft / 0 m 184 ft / 56 m

TTCP

Details ICAO TTCP (TAB)
Name Tobago/Crown Point Intl
Region Trinidad and Tobago
Timezone America/Port_of_Spain (UTC-4.0)
Stats Elevation 36 ft / 11 m (AMSL)
Location 11.149660° -60.832196°
Runways 1
Magnetic Variation 15.193° W

METAR

TTCP 161700Z 09012KT 9000 SHRA SCT016TCU SCT038 30/23 Q1014 NOSIG RMK TCU W

Decode

TAF

Not found

Destination Runways

ID Width Length Bearing (true) Bearing (mag) Surface Threshold Offset Overrun Length
11 148 ft / 45 m 8,995 ft / 2,742 m 94.17° 109.36° Asphalt 1,004 ft / 306 m 0 ft / 0 m
29 148 ft / 45 m 8,995 ft / 2,742 m 274.17° 289.36° Asphalt 0 ft / 0 m 299 ft / 91 m

Approach Navaids

Runway Type Ident Frequency Range Bearing (true) Bearing (mag) Slope Elevation
11 Localiser ITAB 109.30 MHz 18 nm / 33 km 94.17° 109.36° - 36 ft / 11 m (AMSL)
11 Glidescope ITAB 109.30 MHz 10 nm / 19 km 94.17° 109.36° 3.00° 36 ft / 11 m (AMSL)
11 DME ITAB 109.30 MHz 18 nm / 33 km - - - 36 ft / 11 m (AMSL)

Popular Alternatives